Regional Weather Roundup
Issued by NWS

Home | Current Version | Previous Version | Text Only | Print | Product List | Glossary On
Versions: 1 2 3 4 5 6 7 8 9 10 11 12 13 14 15 16 17 18 19 20 21 22 23 24 25 26 27 28 29 30 31 32 33 34 35 36 37 38 39 40 41 42 43 44 45 46 47 48 49 50
000
ASUS46 KSTO 282315
RWRCA

NORTHERN AND CENTRAL CA REGIONAL WEATHER ROUNDUP
NATIONAL WEATHER SERVICE SACRAMENTO CA
400 PM PDT WED JUN 28 2017

NOTE: FAIR INDICATES FEW OR NO CLOUDS BELOW 12,000 FEET WITH NO
SIGNIFICANT WEATHER AND/OR OBSTRUCTIONS TO VISIBILITY.

CAZ001-003-290000-
NORTHWEST AREA

CITY           SKY/WX    TMP DP  RH WIND       PRES   REMARKS
CRESCENT CITY  SUNNY     60  54  80 NW12      29.98F
UKIAH          SUNNY     93  38  14 W8        29.85S
$$

CAZ006-505>513-290000-
BAY AREA

CITY           SKY/WX    TMP DP  RH WIND       PRES   REMARKS
SANTA ROSA     SUNNY     79  53  40 S13       29.87F
SAN RAFAEL     N/A       69  MM  MM MISG
NAPA           SUNNY     74  56  53 S15       29.89F
CONCORD        SUNNY     87  55  33 W9        29.86F
OAKLAND CITY   N/A      MM  MM  MM MISG
OAKLAND        MOSUNNY   66  54  65 W16       29.94F
SAN FRAN CITY  N/A       59  MM  76 MISG
SAN FRAN ARPT  MOSUNNY   65  51  60 W23G30    29.93F
LIVERMORE      SUNNY     80  55  42 NW14      29.88F
HAYWARD        SUNNY     68  52  56 W15       29.93F
REDWOOD CITY   N/A       74  MM  47 MISG
MOFFETT ARPT   SUNNY     69  57  65 N16G22    29.92F
SAN JOSE ARPT  SUNNY     74  57  55 W10       29.91F
$$
CAZ034-037-514>518-290000-
CENTRAL COAST

CITY           SKY/WX    TMP DP  RH WIND       PRES   REMARKS
WATSONVILLE    SUNNY     68  57  68 SE8       29.93F
SALINAS        SUNNY     64  53  67 W17       29.94F
MONTEREY       CLOUDY    61  53  75 W13       29.97S
SAN LUIS OBISP SUNNY     70  54  56 NW18      29.89S
SANTA MARIA    SUNNY     66  55  67 NW17      29.91F
$$
CAZ015-016-290000-
NORTHERN SACRAMENTO VALLEY

CITY           SKY/WX    TMP DP  RH WIND       PRES   REMARKS
REDDING        SUNNY     95  49  20 S9        29.79F HX  92
RED BLUFF      SUNNY     93  55  27 S12G20    29.81F HX  91
OROVILLE       SUNNY     92  56  29 SE6       29.83F HX  90
$$
CAZ016>018-290000-
SOUTHERN SACRAMENTO VALLEY

CITY           SKY/WX    TMP DP  RH WIND       PRES   REMARKS
AUBURN         SUNNY     88  52  29 SW8       29.90F
LINCOLN        FAIR      91  48  22 SW7       29.82F
MARYSVILLE     SUNNY     91  56  30 SW10      29.82F
SAC INTL ARPT  SUNNY     89  59  36 SW8       29.82F
MATHER AIRPORT SUNNY     88  52  29 SW7       29.83F
DOWNTOWN SAC   N/A       90  MM  MM MISG
SAC EXEC ARPT  SUNNY     87  59  38 S9        29.83F
VACAVILLE      SUNNY     89  60  37 S10       29.84F
TRAVIS AFB     SUNNY     84  57  40 SW18      29.82F
$$
CAZ019>021-290000-
SAN JOAQUIN VALLEY

CITY           SKY/WX    TMP DP  RH WIND       PRES   REMARKS
STOCKTON       SUNNY     91  58  32 W9        29.83F HX  90
MODESTO        SUNNY     91  57  31 VRB6      29.82F
MERCED         SUNNY     91  50  24 W8        29.82F
LEMOORE        SUNNY     95  42  16 NW13      29.81F HX  91
FRESNO         MOSUNNY   94  46  19 NW9       29.82F HX  90
HANFORD        SUNNY     94  45  18 NW9       29.82F HX  90
PORTERVILLE      N/A     94  54  25 NW13      29.82F HX  92
BAKERSFIELD    SUNNY     94  53  25 W13       29.81F HX  91
$$
CAZ011-012-071-290000-
NORTHERN MOUNTAINS

CITY           SKY/WX    TMP DP  RH WIND       PRES   REMARKS
YREKA          SUNNY     88  35  15 N15       29.93F
MOUNT SHASTA   SUNNY     84  49  29 CALM      29.96F
ALTURAS        MOSUNNY   82  42  24 NW12G20   29.98F
$$
CAZ011-012-071-290000-
SIERRA NEVADA MTNS

CITY           SKY/WX    TMP DP  RH WIND       PRES   REMARKS
BLUE CANYON    SUNNY     72  42  34 SW8       30.12F
TRUCKEE        SUNNY     77  32  19 S10G17    30.11F
TAHOE VLY ARPT SUNNY     76  30  18 VRB5      30.13S
MAMMOTH LAKES  FAIR      79  27  14 NW17G24   30.16F
$$



USA.gov is the U.S. government's official web portal to all federal, state and local government web resources and services.